Погода в Архаре

Погода в Архаре : погода сейчас, прогноз погоды и архив. Всё, что Вы хотите узнать о погоде в Архаре!

Хотите узнать прогноз погоды в Архаре? Тогда Вам сюда: Погода в Архаре

Поиск расширенной информации на нашем сайте:

Другие новости

Новости СМИ2

Главная страница сайта

Новости сайта

02.10.2013

Напоминаем, что на нашем новом сайте вы можете получить высокодетализированные прогнозы погоды по пунктам России, СНГ и мира (включающие важные для авиации метеовеличины, такие как направление и скорость ветра, видимость, явления погоды, количество и форма облачности, нижняя и верхняя граница облачности), а также ознакомиться с разнообразными материалами по авиационной метеорологии и подборкой полезных ссылок на эту тему.

Сайт Метеоцентр.Азия посвящён разработке технологий оптимизации авиаметеорологического обслуживания, включая проектирование и перспективное создание нескольких автоматизированных авиаметеорологических систем:
- система выпуска высокодетальных прогностических карт явлений погоды для нижнего воздушного пространства по России и ближнему зарубежью;
- система верификации прогнозов TAF (выпускаемых синоптиками официальных АМСГ РФ и ближнего зарубежья) и AUTOTAF (выпускаемых сайтом Метеоцентр.Азия) - выявление ошибок, онлайн-сопоставление с фактической погодой METAR, автоматическое внесение коррективов в прогнозы при резком отклонении фактической погоды от прогноза, подсчёт оправдываемости прогнозов по элементам и в целом;
- система обработки, анализа и отображения авиаметеорологической информации для применения провайдерами метеорологической информации.

Рекомендуем: Описание офигенное радио на нашем сайте.

Погода в Архаре - сегодня

Время (UTC), дата Ветер
(°,м/с) 
Видим.   Явления Облачность Т
(°С)
Тd
(°С)
f(%) Тe
(°С)
Pmin
(гПа)
dP
(гПа)
Po
(мм)
O2
(г/м3)
Тmin Tmax R s Состояние
почвы
15 20.03.17 330 (СЗ) 20000 м    6/0 верхняя 
[Ci fib]
+0.4 -8.2 52 1016.1  -0.3  749  302           
18 20.03.17 290 (З) 20000 м    ясно 
-4.2 -8.8 70 -4  1016.5  0.1  749  308           
21 20.03.17 300 (СЗ) 20000 м    1/0 верхняя 
[Ci fib]
-7 -9.7 81 -7  1016.3  -0.3  749  311           
00 21.03.17 270 (З) 20000 м    10/0 верхняя 
[Ci fib]
-3.9 -9.1 67 -5  1016  0.1  749  307  -7.3         
03 21.03.17 270 (З) 20000 м    3/0 верхняя 
[Ci fib]
+1.6 -8 49 -1  1014.2  -1.4  748  300           
06 21.03.17 290 (З) 5{12}  20000 м    3/3 600 м кучево-дожд. 
[Cb cap]
+2 -8.6 45 -1  1013.1  -1.1  747  300           
09 21.03.17 300 (СЗ) 20000 м    5/3 600 м кучево-дожд., средняя 
[Cb cap|Ac trans]
+0.1 -7.7 56 -2  1013.5  0.3  747  302           
12 21.03.17 300 (СЗ) 20000 м    ясно 
-3.5 -8.5 68 -3  1013.9  0.2  748  306    +2.8       
15 21.03.17 360 (С) 20000 м    ясно 
-4.9 -9.7 69 -4  1013.6  -0.4  747  308           
18 21.03.17 320 (СЗ) 20000 м    ясно 
-5.7 -9.8 73 -5  1013.1  -0.6  747  308           
21 21.03.17 300 (СЗ) 20000 м    3/0 средняя 
[Ac trans]
-7.8 -11.5 75 -8  1013.7  0.5  747  311           
00 22.03.17 320 (СЗ) 20000 м    10/0 верхняя 
[Ci fib]
-3.4 -10.8 57 -6  1014  0.6  748  306  -8.1         
03 22.03.17 290 (З) 20000 м    6/0 средняя, верхняя 
[Ac trans|Ci fib]
+1.8 -10.6 39 1014.1  0.4  748  300           
06 22.03.17 310 (СЗ) 20000 м    4/4 1000 м 
[Cu med, cong]
+4.3 -13.4 26 +3  1014.3  0.3  748  298           
09 22.03.17 320 (СЗ) 20000 м    8/3 1000 м средняя, верхняя 
[Cu hum|Ac trans|Ci fib]
+2.3 -14.5 28 +1  1015.6  1.2  749  300           
12 22.03.17 300 (СЗ) 20000 м    3/0 верхняя 
[Ci fib]
-2.4 -12.1 47 -3  1018.2  2.3  751  306    +4.5       
15 22.03.17 350 (С) 20000 м    3/0 верхняя 
[Ci fib]
-5.1 -10.3 67 -5  1019.1  0.7  751  309           
18 22.03.17 330 (СЗ) 20000 м    ясно 
-7.4 -11.9 70 -7  1019.8  0.6  752  312           
21 22.03.17 310 (СЗ) 20000 м    ясно 
-9.4 -12.4 79 -9  1020.9  0.9  752  315           
00 23.03.17 340 (С) 20000 м    ясно 
-1.2 -12.3 43 -4  1021.4  753  306  -9.6         
03 23.03.17 320 (СЗ) 20000 м    3/3 1000 м 
[Cu hum]
+2 -13.4 31 1021.5  0.3  753  303           
06 23.03.17 280 (З) 20000 м    3/3 1000 м 
[Cu hum]
+3 -12.3 31 +1  1020.5  -0.9  753  301           
09 23.03.17 240 (ЮЗ) 20000 м    ясно 
+1.8 -11.7 36 +1      753  302           
12 23.03.17 тихо ()   20000 м    ясно 
-3.2 -11 55 -3  1021.8  753  308    +3.5       
15 23.03.17 010 (С) 20000 м    ясно 
-6.9 -8.7 87 -7  1022.5  0.4  754  312           
Время (UTC), дата Ветер
(°,м/с) 
Видим.   Явления Облачность Т
(°С)
Тd
(°С)
f(%) Тe
(°С)
Pmin
(гПа)
dP
(гПа)
Po
(мм)
O2
(г/м3)
Тmin Tmax R s Состояние
почвы

Для получения пояснительной информации подведите курсор к названию столбца.

ПОГОДА в Архаре - архив

Всё, что Вы хотите узнать о погоде в Архаре - удобно и подробно!

Выберите нужную дату (начиная с 1 января 2015* года) и нажмите кнопку "Найти".
Будут отображены архивные сводки погоды по пункту Архара, начиная с указанной даты.


Отображать данные в формате CSV (для использования в таблицах Excel)


Внимание! Наш архив погоды предназначен исключительно для личного некоммерческого использования в познавательных целях. Если Вам необходимы официальные справки о состоянии погоды (для производственных, юридических, коммерческих и т.п. целей), обращайтесь в органы Росгидромета.

*Примечание: данная дата относится к архиву по метеостанциям СССР (Россия, СНГ, Балтия).
Архив по метеостанциям Зарубежной Европы и Азии (кроме Китая) хранится 10 дней, по другим регионам земного шара (Китай, Африка, Америка, Австралия, Океания) - 1 день.

Архара - район местоположения метеостанции


Название, широта, долгота, высота метеостанции:
Архара 49.4°ш. 130.1°д. 135 м над ур. моря [Российская Федерация]

Дополнительная информация

В oтличие oт бoльшинства пoгoдных сайтoв мы публикуем пoдрoбную метеoинфoрмацию в детальнoм прoфессиoнальнoм фoрмате.

Характеристики температуры и влажнoсти вoздуха измеряются на высoте 2 м в тени вдали oт зданий и деревьев.
Скoрoсть ветра измеряется на высoте 10 м (на урoвне рoста челoвека скoрoсть ветра ниже в 1.5-2 раза). Если метеoстанция нахoдится в гoрoде или в лесу, тo скoрoсть ветра занижена на 2-4 м/с пo сравнению с oткрытым местoм. Скoрoсть ветра над акватoриями крупных рек и oзёр, а также на вершинах хoлмoв на 2-5 м/с выше, чем в oбычных услoвиях.
Атмoсфернoе давление в разных тoчках местнoсти мoжет значительнo oтличаться oт давления на метеoстанции, в зависимoсти oт услoвий рельефа (при пoдъёме на 10 м давление пoнижается примернo на 1 мм рт.ст.).